DW9746 Weather Reports


time (UTC)temp
C
wind
direction
speed
KPH
gust
KPH
rain 1hr
cm
rain 24hr
cm
rain mn
cm
humidity
%
barometer
mb
20260906124533 20 68 6.4 11.3 0.00 0.00 0.00 97 1017.1
20260906123031 20 39 6.4 9.7 0.00 0.00 0.00 97 1017.3
20260906121557 19 47 4.8 8.0 0.00 0.00 0.00 97 1017.0
20260906120055 19 42 6.4 8.0 0.00 0.00 0.00 97 1016.7
20260906114535 19 63 3.2 6.4 0.00 0.00 0.00 97 1016.3
20260906113037 19 57 3.2 8.0 0.00 0.00 0.00 97 1016.1
20260906111524 19 56 4.8 8.0 0.00 0.00 0.00 97 1015.9
20260906110012 19 47 6.4 11.3 0.00 0.00 0.00 97 1015.8
20260906104552 19 45 4.8 8.0 0.00 0.00 0.00 97 1015.6
20260906103054 19 53 4.8 8.0 0.00 0.00 0.00 97 1015.3
20260906101533 19 40 4.8 8.0 0.00 0.00 0.00 97 1015.2
20260906100033 19 28 6.4 9.7 0.00 0.00 0.00 97 1015.2
20260906094515 19 25 6.4 8.0 0.00 0.00 0.00 97 1015.2
20260906093018 19 26 3.2 6.4 0.00 0.00 0.00 96 1015.2
20260906091613 20 26 4.8 6.4 0.00 0.00 0.00 96 1015.2
20260906090059 20 36 3.2 4.8 0.00 0.00 0.00 96 1015.1
20260906084559 20 36 4.8 8.0 0.00 0.00 0.00 96 1015.1
20260906083057 20 44 4.8 8.0 0.00 0.00 0.00 96 1015.0
20260906081557 20 44 4.8 9.7 0.00 0.00 0.00 95 1014.9
20260906080055 20 59 4.8 9.7 0.00 0.00 0.00 95 1014.9
20260906074553 20 40 4.8 6.4 0.00 0.00 0.00 95 1015.2
20260906073051 20 41 4.8 8.0 0.00 0.00 0.00 95 1015.1
20260906071550 21 50 3.2 8.0 0.00 0.00 0.00 94 1015.1
20260906070032 21 38 3.2 8.0 0.00 0.00 0.00 94 1015.1
20260906064530 21 18 8.0 11.3 0.00 0.00 0.00 94 1015.2
20260906063012 21 24 8.0 11.3 0.00 0.00 0.00 93 1015.3
20260906061510 21 19 4.8 8.0 0.00 0.00 0.00 93 1015.2
20260906060053 21 23 6.4 11.3 0.00 0.00 0.00 93 1015.2
20260906054552 21 32 6.4 9.7 0.00 0.00 0.00 93 1015.1
20260906053033 21 26 6.4 9.7 0.00 0.00 0.00 92 1015.0
20260906051532 21 28 6.4 8.0 0.00 0.00 0.00 92 1014.9
20260906050013 21 57 6.4 9.7 0.00 0.00 0.00 92 1014.7
20260906044512 21 39 4.8 8.0 0.00 0.00 0.00 92 1014.6
20260906043059 21 50 4.8 14.5 0.00 0.00 0.00 92 1014.5
20260906041557 21 63 4.8 14.5 0.00 0.00 0.00 92 1014.3
20260906040038 21 59 6.4 16.1 0.00 0.00 0.00 91 1014.2
20260906034534 21 57 9.7 14.5 0.00 0.00 0.00 91 1014.0
20260906033020 21 70 3.2 16.1 0.00 0.00 0.00 91 1014.1
20260906031515 21 58 8.0 17.7 0.00 0.00 0.00 91 1014.1
20260906030100 21 52 11.3 20.9 0.00 0.00 0.00 91 1014.1
20260906024558 21 61 12.9 20.9 0.00 0.00 0.00 90 1014.1
20260906023056 22 40 17.7 27.4 0.00 0.00 0.00 90 1014.0
20260906021555 22 46 17.7 27.4 0.00 0.00 0.00 89 1013.9
20260906014545 23 44 12.9 20.9 0.00 0.00 0.00 88 1013.3
20260906013050 23 52 11.3 17.7 0.00 0.00 0.00 89 1013.0
20260906011556 24 47 8.0 12.9 0.00 0.00 0.00 87 1013.0
20260906010019 24 53 6.4 9.7 0.00 0.00 0.00 87 1012.9
20260906004519 24 47 4.8 6.4 0.00 0.00 0.00 88 1012.9
20260906003104 25 10 6.4 9.7 0.00 0.00 0.00 86 1012.9
20260906001555 25 9 6.4 8.0 0.00 0.00 0.00 85 1012.9
20260906000050 25 13 6.4 8.0 0.00 0.00 0.00 84 1012.9
20260905234537 26 13 6.4 12.9 0.00 0.00 0.00 82 1012.9
20260905233013 26 32 12.9 20.9 0.00 0.00 0.00 80 1012.6
20260905231514 26 25 14.5 22.5 0.00 0.00 0.00 79 1012.6
20260905230059 27 30 14.5 24.1 0.00 0.00 0.00 80 1012.7
20260905224557 27 35 16.1 27.4 0.00 0.00 0.00 79 1012.4
20260905223057 27 26 17.7 27.4 0.00 0.00 0.00 78 1012.3
20260905221556 28 32 20.9 29.0 0.00 0.00 0.00 76 1012.1
20260905220059 28 31 17.7 27.4 0.00 0.00 0.00 75 1012.0
20260905214555 29 22 16.1 25.7 0.00 0.00 0.00 76 1011.8
20260905213059 28 34 17.7 29.0 0.00 0.00 0.00 76 1011.7
20260905211558 29 22 16.1 24.1 0.00 0.00 0.00 72 1011.8
20260905210039 30 24 14.5 22.5 0.00 0.00 0.00 74 1011.5
20260905204538 30 18 14.5 24.1 0.00 0.00 0.00 73 1011.6
20260905203019 29 22 16.1 24.1 0.00 0.00 0.00 74 1011.7
20260905201518 30 5 14.5 24.1 0.00 0.00 0.00 75 1011.9
20260905200105 30 360 17.7 22.5 0.00 0.00 0.00 72 1012.0
20260905194610 30 360 14.5 20.9 0.00 0.00 0.00 74 1011.8
20260905193042 30 355 9.7 20.9 0.00 0.00 0.00 75 1011.8
20260905191542 30 355 14.5 20.9 0.00 0.00 0.00 74 1012.0
20260905190024 30 350 8.0 16.1 0.00 0.00 0.00 73 1012.0
20260905184543 30 17 9.7 16.1 0.00 0.00 0.00 73 1012.1
20260905183018 30 36 6.4 16.1 0.00 0.00 0.00 73 1012.3
20260905181507 30 46 11.3 17.7 0.00 0.00 0.00 73 1012.3
20260905180045 30 39 8.0 14.5 0.00 0.00 0.00 75 1012.4
20260905174541 30 15 3.2 14.5 0.00 0.00 0.00 78 1012.5
20260905173017 30 5 8.0 14.5 0.00 0.00 0.00 77 1012.4
20260905171516 30 24 11.3 17.7 0.00 0.00 0.00 79 1012.4
20260905170058 30 38 11.3 16.1 0.00 0.00 0.00 78 1012.4
20260905164559 30 5 11.3 19.3 0.00 0.00 0.00 79 1012.6
20260905163040 30 24 9.7 20.9 0.00 0.00 0.00 79 1012.6
20260905161538 30 360 9.7 16.1 0.00 0.00 0.00 80 1012.5
20260905160027 30 36 9.7 16.1 0.00 0.00 0.00 77 1012.5
20260905154619 29 23 9.7 16.1 0.00 0.00 0.00 79 1012.3
20260905153003 29 5 6.4 11.3 0.00 0.00 0.00 82 1012.4
20260905151610 28 24 8.0 12.9 0.00 0.00 0.00 84 1012.3
20260905150042 28 9 6.4 12.9 0.00 0.00 0.00 86 1012.0
20260905144542 27 10 8.0 12.9 0.00 0.00 0.00 87 1012.0
20260905143024 27 30 9.7 14.5 0.00 0.00 0.00 89 1012.1
20260905141527 27 15 9.7 14.5 0.00 0.00 0.00 88 1012.0
20260905140005 27 13 6.4 11.3 0.00 0.00 0.00 90 1011.8
20260905134505 26 331 3.2 9.7 0.00 0.00 0.00 91 1011.8
20260905133050 26 315 1.6 8.0 0.00 0.00 0.00 91 1011.9
20260905131546 26 309 3.2 9.7 0.00 0.00 0.00 92 1012.2
20260905130026 25 339 1.6 6.4 0.00 0.00 0.00 93 1011.9